Weather History for Little Falls, MN

Change the Weather History Date:

Thursday, May 16, 2013

  Actual Average Record
Temperature  
Mean Temperature 60 °F -  
Max Temperature 77 °F 72 °F 91 °F (1987)
Min Temperature 44 °F 44 °F 25 °F (1983)
Degree Days  
Heating Degree Days 4    
Growing Degree Days 10 (Base 50)    
Moisture  
Dew Point 34 °F    
Average Humidity 38    
Maximum Humidity 76    
Minimum Humidity 19    
Precipitation  
Precipitation 0.00 in - - ()
Sea Level Pressure  
Sea Level Pressure 29.91 in    
Wind  
Wind Speed 4 mph (ENE)    
Max Wind Speed 12 mph    
Max Gust Speed 20 mph    
Visibility 10 miles    
Events      
Averages and records for this station are not official NWS values.
T = Trace of Precipitation, MM = Missing Value Source: NWS Daily Summary

Daily Weather History Graph

Daily Weather History Graph

Search for Another Location

Airport:

Trip Planner

Search our weather history database for the weather conditions in past years. The results will help you decide how hot, cold, wet, or windy it might be!

Date:

Astronomy

May. 16, 2013 Rise Set
Actual Time 5:43 AM CDT 8:44 PM CDT
Civil Twilight 5:08 AM CDT 9:19 PM CDT
Nautical Twilight 4:23 AM CDT 10:05 PM CDT
Astronomical Twilight 3:29 AM CDT 10:59 PM CDT
Moon 11:24 AM CDT (5/16) 1:00 AM CDT (5/16)
Length of Visible Light 16h 10m
Length of Day
15h 00m
Waxing Crescent, 36% of the Moon is Illuminated
May 16
Waxing Crescent
May 17
First Quarter
May 24
Full
May 31
Last Quarter
Jun 8
New

Hourly Weather History & Observations

Time (CDT) Temp. Dew Point Humidity Pressure Visibility Wind Dir Wind Speed Gust Speed Precip Events Conditions
12:17 AM 53.6 °F 41.0 °F 62% 29.83 in 10.0 mi Calm Calm - N/A   Clear
12:36 AM 55.4 °F 37.4 °F 51% 29.84 in 10.0 mi Calm Calm - N/A   Clear
12:57 AM 55.4 °F 37.4 °F 51% 29.84 in 10.0 mi Calm Calm - N/A   Clear
1:16 AM 53.6 °F 39.2 °F 58% 29.85 in 10.0 mi Calm Calm - N/A   Clear
1:36 AM 53.6 °F 35.6 °F 51% 29.86 in 10.0 mi Calm Calm - N/A   Clear
1:56 AM 51.8 °F 35.6 °F 54% 29.86 in 10.0 mi NNW 4.6 mph - N/A   Clear
2:16 AM 53.6 °F 35.6 °F 51% 29.86 in 10.0 mi Calm Calm - N/A   Clear
2:36 AM 50.0 °F 37.4 °F 62% 29.87 in 10.0 mi Calm Calm - N/A   Clear
2:56 AM 46.4 °F 39.2 °F 76% 29.88 in 10.0 mi Calm Calm - N/A   Clear
3:16 AM 46.4 °F 37.4 °F 71% 29.88 in 10.0 mi Calm Calm - N/A   Clear
3:36 AM 46.4 °F 37.4 °F 71% 29.88 in 10.0 mi Calm Calm - N/A   Clear
3:56 AM 46.4 °F 37.4 °F 71% 29.89 in 10.0 mi Calm Calm - N/A   Clear
4:16 AM 44.6 °F 35.6 °F 71% 29.89 in 10.0 mi Calm Calm - N/A   Clear
4:36 AM 46.4 °F 37.4 °F 71% 29.90 in 10.0 mi Calm Calm - N/A   Clear
4:57 AM 46.4 °F 37.4 °F 71% 29.90 in 10.0 mi Calm Calm - N/A   Clear
5:16 AM 44.6 °F 37.4 °F 76% 29.90 in 10.0 mi Calm Calm - N/A   Clear
5:37 AM 44.6 °F 37.4 °F 76% 29.90 in 10.0 mi Calm Calm - N/A   Clear
5:56 AM 44.6 °F 37.4 °F 76% 29.91 in 10.0 mi Calm Calm - N/A   Clear
6:16 AM 46.4 °F 37.4 °F 71% 29.91 in 10.0 mi Calm Calm - N/A   Clear
6:37 AM 46.4 °F 39.2 °F 76% 29.92 in 10.0 mi Calm Calm - N/A   Clear
6:56 AM 50.0 °F 39.2 °F 66% 29.92 in 10.0 mi Calm Calm - N/A   Clear
7:16 AM 53.6 °F 37.4 °F 54% 29.91 in 10.0 mi Calm Calm - N/A   Clear
7:37 AM 55.4 °F 37.4 °F 51% 29.92 in 10.0 mi NE 3.5 mph - N/A   Clear
7:56 AM 59.0 °F 37.4 °F 45% 29.92 in 10.0 mi ENE 3.5 mph - N/A   Clear
8:16 AM 60.8 °F 35.6 °F 39% 29.93 in 10.0 mi ENE 8.1 mph - N/A   Clear
8:37 AM 62.6 °F 35.6 °F 37% 29.94 in 10.0 mi ENE 4.6 mph - N/A   Clear
8:56 AM 62.6 °F 35.6 °F 37% 29.94 in 10.0 mi ENE 5.8 mph - N/A   Clear
9:16 AM 66.2 °F 35.6 °F 32% 29.95 in 10.0 mi ENE 4.6 mph - N/A   Clear
9:37 AM 66.2 °F 35.6 °F 32% 29.95 in 10.0 mi East 4.6 mph - N/A   Clear
9:56 AM 68.0 °F 35.6 °F 30% 29.95 in 10.0 mi NE 4.6 mph - N/A   Clear
10:16 AM 69.8 °F 35.6 °F 28% 29.95 in 10.0 mi ENE 6.9 mph - N/A   Clear
10:37 AM 69.8 °F 35.6 °F 28% 29.95 in 10.0 mi East 8.1 mph - N/A   Clear
10:56 AM 71.6 °F 35.6 °F 27% 29.94 in 10.0 mi East 9.2 mph - N/A   Clear
11:16 AM 71.6 °F 35.6 °F 27% 29.94 in 10.0 mi East 8.1 mph - N/A   Clear
11:36 AM 71.6 °F 35.6 °F 27% 29.94 in 10.0 mi East 6.9 mph - N/A   Clear
11:56 AM 73.4 °F 35.6 °F 25% 29.93 in 10.0 mi NE 5.8 mph - N/A   Clear
12:17 PM 75.2 °F 35.6 °F 24% 29.92 in 10.0 mi ENE 6.9 mph - N/A   Clear
12:36 PM 75.2 °F 33.8 °F 22% 29.92 in 10.0 mi ENE 9.2 mph - N/A   Clear
12:56 PM 75.2 °F 33.8 °F 22% 29.91 in 10.0 mi East 6.9 mph 19.6 mph N/A   Clear
1:17 PM 77.0 °F 33.8 °F 21% 29.91 in 10.0 mi East 9.2 mph - N/A   Clear
1:36 PM 75.2 °F 32.0 °F 21% 29.91 in 10.0 mi East 6.9 mph - N/A   Clear
1:56 PM 75.2 °F 32.0 °F 21% 29.91 in 10.0 mi East 9.2 mph - N/A   Clear
2:17 PM 77.0 °F 32.0 °F 19% 29.92 in 10.0 mi ENE 9.2 mph - N/A   Clear
2:36 PM 77.0 °F 32.0 °F 19% 29.91 in 10.0 mi ESE 8.1 mph 19.6 mph N/A   Clear
2:56 PM 77.0 °F 32.0 °F 19% 29.91 in 10.0 mi East 6.9 mph 17.3 mph N/A   Clear
3:17 PM 77.0 °F 32.0 °F 19% 29.90 in 10.0 mi ENE 6.9 mph 17.3 mph N/A   Clear
3:36 PM 77.0 °F 32.0 °F 19% 29.90 in 10.0 mi East 5.8 mph - N/A   Clear
3:56 PM 77.0 °F 32.0 °F 19% 29.91 in 10.0 mi ESE 6.9 mph - N/A   Clear
4:16 PM 77.0 °F 32.0 °F 19% 29.91 in 10.0 mi ESE 6.9 mph - N/A   Clear
4:36 PM 77.0 °F 32.0 °F 19% 29.91 in 10.0 mi ESE 9.2 mph - N/A   Clear
5:16 PM 75.2 °F 32.0 °F 21% 29.91 in 10.0 mi ENE 10.4 mph 16.1 mph N/A   Clear
5:36 PM 75.2 °F 32.0 °F 21% 29.90 in 10.0 mi ENE 9.2 mph - N/A   Clear
5:57 PM 73.4 °F 32.0 °F 22% 29.91 in 10.0 mi ENE 9.2 mph - N/A   Clear
6:16 PM 73.4 °F 30.2 °F 20% 29.91 in 10.0 mi ENE 9.2 mph - N/A   Clear
6:36 PM 73.4 °F 30.2 °F 20% 29.90 in 10.0 mi NE 6.9 mph - N/A   Clear
6:57 PM 71.6 °F 30.2 °F 22% 29.90 in 10.0 mi ENE 10.4 mph - N/A   Clear
7:16 PM 71.6 °F 30.2 °F 22% 29.90 in 10.0 mi ENE 8.1 mph - N/A   Clear
7:36 PM 71.6 °F 30.2 °F 22% 29.89 in 10.0 mi ENE 10.4 mph 16.1 mph N/A   Clear
7:57 PM 69.8 °F 30.2 °F 23% 29.90 in 10.0 mi ENE 9.2 mph - N/A   Clear
8:16 PM 69.8 °F 30.2 °F 23% 29.91 in 10.0 mi East 8.1 mph - N/A   Clear
8:36 PM 68.0 °F 30.2 °F 24% 29.91 in 10.0 mi East 9.2 mph - N/A   Scattered Clouds
8:57 PM 68.0 °F 28.4 °F 23% 29.91 in 10.0 mi East 8.1 mph - N/A   Clear
9:16 PM 68.0 °F 28.4 °F 23% 29.91 in 10.0 mi East 10.4 mph - N/A   Clear
9:36 PM 68.0 °F 28.4 °F 23% 29.91 in 10.0 mi East 9.2 mph 18.4 mph N/A   Clear
9:56 PM 66.2 °F 30.2 °F 26% 29.91 in 10.0 mi East 8.1 mph 17.3 mph N/A   Scattered Clouds
10:17 PM 66.2 °F 30.2 °F 26% 29.91 in 10.0 mi East 10.4 mph - N/A   Scattered Clouds
10:36 PM 66.2 °F 30.2 °F 26% 29.91 in 10.0 mi East 11.5 mph - N/A   Scattered Clouds
10:56 PM 66.2 °F 30.2 °F 26% 29.91 in 10.0 mi East 11.5 mph 17.3 mph N/A   Scattered Clouds
11:17 PM 64.4 °F 30.2 °F 28% 29.91 in 10.0 mi East 10.4 mph 16.1 mph N/A   Clear
11:36 PM 64.4 °F 30.2 °F 28% 29.91 in 10.0 mi East 9.2 mph - N/A   Scattered Clouds
11:56 PM 64.4 °F 30.2 °F 28% 29.91 in 10.0 mi ESE 10.4 mph - N/A   Scattered Clouds